Meteo Giornale » Osservazioni meteo Gran Bretagna » Cardiff-Wales

ore: 15:50 - Osservazioni Meteo Cardiff-Wales
Lat. 51° 24' N Lon. 3° 21' W Alt. 67 metri s.l.m.

molto_nuvoloso Europe/London

19 °C

Molto Nuvoloso

Temp. 24 Ore

11 °C

19 °C

Ovest/Nord-Ovest

20.3 Km/h

Dew point 17 °C

Umidità 88 %

Visibilità  10 Km

Il sole sorge alle ore 07:01

Il sole tramonta alle ore 19:09

Data e Ora Cielo e Fenomeni T °C DP °C Um. % Pres. hPa Vis. km Vento km/h
Oggi h: 15:50 molto_nuvoloso Molto Nuvoloso 19 17 88 1016 10 O/NO 20.3
Oggi h: 15:20 coperto Coperto 18 18 100 1016 10 O 16.7
Oggi h: 14:50 coperto Coperto 18 17 93 1016 10 O 16.7
Oggi h: 13:50 coperto Coperto 18 17 93 1016 10 O 16.7
Oggi h: 13:20 molto_nuvoloso Molto Nuvoloso 18 16 88 1017 10 O/NO 18.5
Oggi h: 12:50 molto_nuvoloso Molto Nuvoloso 18 16 88 1017 10 O 18.5
Oggi h: 12:20 molto_nuvoloso Molto Nuvoloso 18 16 88 1017 10 O/NO 22.2
Oggi h: 11:50 molto_nuvoloso Molto Nuvoloso 18 16 88 1017 10 O/NO 22.2
Oggi h: 11:20 nuvoloso Nuvoloso 18 16 88 1017 10 O/NO 20.3
Oggi h: 10:50 molto_nuvoloso Molto Nuvoloso 17 16 93 1017 10 O 16.7
Oggi h: 10:20 coperto Coperto 17 16 93 1017 10 O/NO 18.5
Oggi h: 09:50 molto_nuvoloso Molto Nuvoloso 16 15 93 1017 10 O/NO 20.3
Oggi h: 09:20 sereno Sereno 16 15 93 1017 10 O/NO 16.7
Oggi h: 08:20 poco_nuvoloso Poco Nuvoloso 13 13 100 1017 10 O/NO 9.3
Oggi h: 07:50 foschia Foschia 12 12 100 1017 5 NO 9.3
Oggi h: 07:20 foschia Foschia 12 12 100 1017 5 O/NO 13
Oggi h: 06:50 foschia Foschia 12 12 100 1017 5 NO 11.1
Oggi h: 06:20 molto_nuvoloso Molto Nuvoloso 11 11 100 1017 9 NO 9.3
Oggi h: 05:50 nuvoloso Nuvoloso 11 10 93 1017 10 NO 9.3
Oggi h: 05:20 nuvoloso Nuvoloso 11 10 93 1017 10 NO 11.1
Oggi h: 04:50 sereno Sereno 11 10 93 1017 10 NO 11.1
Oggi h: 04:20 sereno Sereno 11 11 100 1018 10 NO 13
Oggi h: 03:50 sereno Sereno 11 11 100 1018 10 NO 9.3
Oggi h: 03:20 sereno Sereno 11 11 100 1018 10 NO 13
Oggi h: 02:50 sereno Sereno 11 11 100 1018 10 NO 13
Oggi h: 02:20 sereno Sereno 13 12 93 1018 10 O/NO 11.1
Oggi h: 01:50 sereno Sereno 13 12 93 1018 10 O/NO 13
Oggi h: 01:20 sereno Sereno 13 12 93 1019 10 NO 16.7
Oggi h: 00:50 poco_nuvoloso Poco Nuvoloso 13 12 93 1019 10 O/NO 14.8
Oggi h: 00:20 molto_nuvoloso Molto Nuvoloso 14 13 93 1019 10 O/NO 14.8
Ieri h: 23:50 molto_nuvoloso Molto Nuvoloso 14 13 93 1019 10 O 13
Ieri h: 22:50 sereno Sereno 14 12 87 1020 10 O 14.8
Ieri h: 22:20 sereno Sereno 13 13 100 1020 10 O 13
Ieri h: 21:20 sereno Sereno 14 13 93 1020 10 O 11.1
Ieri h: 20:50 sereno Sereno 14 13 93 1020 10 O/NO 14.8
Ieri h: 20:20 sereno Sereno 15 14 93 1020 10 O 16.7
Ieri h: 19:50 sereno Sereno 15 14 93 1020 10 O 16.7
Ieri h: 19:20 sereno Sereno 16 14 87 1020 10 O 14.8
Ieri h: 18:50 nuvoloso Nuvoloso 16 15 93 1019 10 O 13
Ieri h: 18:20 nuvoloso Nuvoloso 17 16 93 1019 10 O 16.7
Ieri h: 17:50 molto_nuvoloso Molto Nuvoloso 17 16 93 1019 10 O 18.5
Ieri h: 17:20 nuvoloso Nuvoloso 18 15 82 1020 10 O 18.5
Ieri h: 16:50 molto_nuvoloso Molto Nuvoloso 18 16 88 1020 10 O 22.2